Dewpoint
44 43 43 42 42 41 36 32 21 37 40 27 28 23 23 25 22 23 21 19 17 15 15 14 12 13 16 28 27 23 29 25 17 20 26 27 31 31 31 30 27 32 30 26
44 44 44 43 42 41 35 29 29 36 35 20 24 24 24 24 23 21 20 19 18 18 16 14 15 15 18 28 25 20 23 21 14 10 21 24 27 29 29 29 30 29 27 27
44 44 43 43 42 42 35 28 20 28 30 31 27 24 21 21 26 25 24 21 21 20 19 19 17 18 18 22 25 26 24 22 18 11 13 17 18 21 26 27 22 25 27 31
44 43 43 43 43 41 35 30 23 25 22 24 25 26 24 22 22 23 21 21 20 20 19 19 18 18 19 20 22 23 28 22 23 22 21 20 19 18 21 20 22 22 23 27
43 43 42 42 42 41 34 26 26 29 27 26 26 26 25 23 23 24 23 25 27 26 25 22 22 24 23 21 23 23 31 22 23 20 20 22 20 22 23 23 23 22 22 19
42 42 43 42 42 39 33 34 34 30 26 26 24 21 20 21 23 24 25 24 26 27 26 29 31 31 29 28 24 21 25 22 18 15 20 19 19 17 19 20 16 14 15 19
43 43 43 42 42 41 36 35 33 30 23 24 23 24 25 24 23 23 25 26 25 25 33 33 31 28 27 27 26 25 22 22 21 16 17 11 13 14 14 13 11 10 11 15
42 42 43 43 42 41 39 38 36 32 26 26 26 26 25 26 27 27 26 27 27 29 29 22 21 18 17 21 24 25 26 23 20 16 13 11 12 10 11 11 10 11 14 16
41 41 41 42 42 42 40 38 39 35 28 27 29 28 28 25 24 25 26 28 29 29 26 23 18 14 12 13 13 24 25 25 21 18 14 9 9 11 13 13 10 12 10 9
37 37 38 40 40 41 40 37 38 35 29 27 28 26 25 27 26 24 24 26 29 30 26 21 18 16 17 14 12 16 21 22 19 18 16 16 15 15 15 14 14 16 16 15
35 35 36 36 37 38 40 35 38 36 30 28 29 29 29 29 29 24 24 24 24 27 24 22 19 19 19 18 16 14 14 15 16 18 16 12 17 16 15 17 18 19 19 19
34 34 34 33 34 36 38 35 36 38 34 30 33 33 32 30 30 29 28 25 26 28 27 27 26 22 24 22 18 19 17 17 15 16 14 18 23 23 24 25 24 24 24 25
34 33 33 34 34 34 35 35 36 36 33 30 30 28 30 33 32 33 29 29 30 29 32 29 27 23 25 19 18 19 22 22 20 20 21 22 23 27 26 29 32 34 35 32
35 33 33 33 33 33 33 32 34 35 32 27 23 27 27 29 30 33 34 33 32 32 34 30 28 25 28 24 22 21 21 23 22 22 24 24 22 23 29 33 30 33 36 36
36 35 35 35 35 32 32 31 31 34 30 24 23 27 28 28 28 29 33 34 33 32 30 27 26 28 28 30 29 25 26 24 22 21 22 22 23 25 28 30 33 35 37 37
35 33 34 35 35 35 30 27 33 35 35 29 25 30 30 30 32 31 31 32 33 33 31 30 32 31 29 26 22 22 23 25 25 24 25 25 25 26 29 32 34 37 40 41
30 34 33 34 35 36 29 24 33 39 39 32 26 23 26 35 36 34 34 37 36 34 32 30 31 31 32 28 22 22 25 26 26 26 27 25 25 30 32 34 37 38 38 41
28 28 31 33 34 35 32 32 33 34 32 31 25 24 24 34 31 30 35 33 32 32 31 32 29 30 30 24 23 24 24 25 26 27 28 28 29 34 36 37 38 37 39 41
29 28 30 33 34 30 29 32 33 34 28 26 28 22 16 33 31 33 32 32 27 31 28 29 30 26 24 24 25 26 27 25 25 28 33 34 34 34 34 36 39 38 39 40
29 30 33 30 35 37 37 36 35 32 32 32 27 26 22 30 28 27 28 30 27 24 27 29 27 24 26 27 31 32 34 34 35 33 32 34 34 35 35 37 39 39 39 41
32 32 31 33 31 31 32 28 29 28 26 29 28 27 25 28 24 23 31 27 27 23 24 25 26 24 31 33 32 32 33 35 35 36 37 36 36 35 35 37 37 37 41 40
31 32 31 30 29 28 25 24 25 26 22 26 27 27 27 27 33 29 27 25 27 21 31 26 24 27 31 30 30 32 34 34 33 34 34 33 34 35 35 36 36 35 37 37
31 29 24 26 23 20 19 18 22 22 22 28 29 28 30 32 31 28 27 24 23 28 25 20 27 30 29 31 34 34 32 31 32 32 32 32 32 33 33 33 33 34 34 34
26 24 19 21 19 22 20 22 21 21 24 26 27 26 26 28 28 27 24 24 25 21 20 21 28 30 31 33 33 31 30 30 30 30 30 30 31 31 32 32 33 34 33 33
25 23 19 21 22 25 25 25 23 23 27 26 25 25 26 26 25 26 24 22 19 21 19 27 29 31 33 31 32 31 29 29 30 30 30 30 30 30 30 31 32 32 33 33
24 22 19 21 22 23 27 28 28 29 28 28 26 22 22 22 23 23 20 19 17 17 27 30 31 31 31 31 32 32 31 31 31 30 30 30 30 30 30 31 31 32 32 32
22 20 20 18 18 16 16 20 25 31 27 22 23 19 18 20 19 18 20 18 16 24 28 30 30 30 30 31 31 32 31 31 31 30 31 30 31 30 30 29 31 31 32 32
Wind_Speed
3 4 5 4 3 2 3 2 3 8 5 2 1 2 3 7 8 11 8 5 3 4 11 6 8 5 5 4 4 5 3 5 8 13 17 15 9 6 7 13 25 7 19 23
4 4 6 5 3 2 2 1 3 4 3 2 3 5 6 5 6 6 4 7 7 4 4 5 3 11 8 9 6 4 1 2 13 11 4 5 8 10 14 10 8 10 16 11
5 4 4 5 5 5 3 2 3 1 2 2 2 5 8 5 6 11 6 10 14 7 10 4 7 9 6 7 11 11 10 7 12 13 13 7 13 19 14 5 8 10 8 16
6 4 2 4 6 7 4 2 4 4 2 5 6 2 5 10 8 6 11 5 8 16 11 15 9 6 11 11 9 4 8 10 16 21 22 20 21 21 19 17 15 10 12 19
7 4 2 2 5 8 2 5 2 3 4 7 7 8 5 8 13 7 9 8 19 14 14 18 21 11 6 11 4 4 7 10 12 24 21 20 23 20 19 18 21 21 32 33
9 11 4 3 7 8 3 3 3 1 5 4 4 7 11 11 13 11 11 15 14 13 21 11 17 17 16 20 19 17 12 10 10 18 8 12 15 27 20 19 21 19 25 24
7 8 8 7 5 13 4 4 1 4 8 11 9 8 12 16 18 20 22 12 14 9 5 8 10 16 21 17 24 23 17 17 11 18 14 22 15 18 21 28 31 27 28 29
7 7 7 6 5 0 9 4 4 4 9 12 14 15 15 15 17 19 21 28 23 11 3 8 10 8 8 12 23 26 26 20 12 15 22 20 21 24 18 17 34 28 27 28
10 8 8 8 7 6 2 6 8 5 7 5 7 8 12 17 19 15 13 18 13 7 5 5 6 7 7 6 4 10 17 22 16 9 13 17 20 26 28 27 33 36 36 37
12 12 11 11 10 8 5 6 4 4 8 12 13 10 8 5 8 14 18 10 3 7 7 11 12 16 7 10 10 6 7 7 26 25 16 14 30 31 14 21 32 34 25 25
13 13 13 13 13 11 7 6 5 8 8 16 19 22 19 14 12 18 9 15 10 8 11 8 9 10 12 12 19 15 15 12 12 11 17 25 7 17 20 23 24 25 25 27
13 13 14 14 15 14 11 8 9 9 11 13 13 21 28 27 33 21 14 14 14 4 5 6 6 6 3 5 9 9 16 19 11 16 14 15 3 11 20 20 25 29 24 28
14 14 14 14 14 15 13 11 8 5 7 20 21 26 27 26 30 26 21 18 14 13 16 14 11 15 6 17 17 21 13 12 19 23 30 30 27 19 27 17 15 17 25 32
16 16 15 15 15 15 15 13 10 10 7 8 19 13 19 12 22 26 30 34 23 18 13 14 13 14 10 12 15 21 16 12 21 28 29 23 33 29 23 20 24 31 30 28
17 17 16 16 16 16 15 15 17 16 12 7 15 20 29 29 28 29 23 26 27 21 16 12 18 9 10 12 12 26 21 31 26 35 32 23 25 27 28 25 22 26 28 28
18 17 17 17 15 13 6 6 7 22 22 7 6 6 18 19 16 20 22 23 21 17 7 9 8 10 8 8 19 23 23 30 34 35 28 29 31 34 31 28 28 21 22 20
20 20 18 18 16 11 8 8 5 5 12 5 8 9 5 3 2 2 3 4 6 9 5 7 11 11 10 6 28 35 16 18 20 20 20 21 26 23 22 20 15 16 24 21
19 20 20 20 18 18 19 25 31 20 4 5 7 8 6 5 2 3 2 3 3 5 5 4 5 3 7 11 20 13 19 23 24 25 20 24 24 17 20 18 14 20 20 8
19 20 21 20 9 8 9 22 30 17 12 7 7 6 8 2 3 3 3 6 5 5 6 6 6 6 12 17 14 16 17 13 15 13 8 7 10 16 19 14 13 15 14 5
20 13 4 5 6 7 13 5 4 7 9 7 7 7 11 6 4 3 4 6 4 5 8 5 7 11 18 10 9 10 10 12 11 9 10 9 13 14 15 9 16 13 14 9
1 2 3 7 14 3 4 5 6 6 5 6 7 15 20 4 10 7 6 3 4 5 5 10 6 6 1 8 10 11 11 12 11 8 9 10 12 17 19 10 5 5 6 12
6 10 7 4 3 4 4 6 5 8 7 7 8 10 12 5 4 4 3 4 3 8 3 5 4 2 6 10 11 10 11 11 10 8 9 10 8 8 5 4 5 5 13 17
3 4 3 4 5 7 8 9 7 6 6 9 9 7 8 3 3 3 2 4 8 5 4 4 2 2 6 8 8 8 11 11 10 9 6 5 6 11 9 11 10 12 18 18
4 5 7 8 8 10 11 11 7 9 3 7 7 5 5 4 5 4 4 6 4 4 4 2 3 8 5 3 6 7 10 11 10 8 8 9 9 12 12 14 12 13 18 15
6 6 7 13 13 9 7 13 8 10 2 2 2 1 5 5 4 5 4 3 5 5 4 3 8 6 1 2 1 3 6 8 9 10 10 11 11 12 14 14 13 13 19 18
5 8 7 9 7 12 7 5 7 4 2 2 0 3 3 7 5 6 8 4 6 4 5 4 5 3 1 1 1 2 2 6 8 10 11 12 13 13 14 15 15 15 14 16
6 9 10 17 16 15 15 8 9 3 4 5 3 5 11 3 5 5 6 6 7 6 4 4 5 5 3 3 3 4 4 5 6 7 10 11 11 12 14 16 13 13 13 15
Wind_Direction
298 263 254 249 261 347 38 8 11 333 354 39 53 229 247 325 313 322 295 288 337 342 341 324 319 243 238 165 134 43 352 283 301 267 293 316 286 281 258 240 223 215 234 252
330 297 265 234 231 141 87 45 301 340 86 297 252 296 286 273 289 295 307 309 307 333 319 332 319 313 306 203 185 151 151 345 321 325 249 63 38 343 341 323 246 236 232 250
350 309 279 225 211 173 106 87 325 341 9 164 296 290 296 283 283 279 266 288 306 330 319 220 286 301 303 264 235 215 160 203 217 240 286 273 293 301 302 321 287 337 276 271
1 355 258 240 216 181 121 87 239 219 232 269 226 228 263 276 292 264 285 305 280 301 296 305 280 271 298 298 290 232 173 241 226 239 252 263 265 279 277 278 265 269 283 296
11 1 340 273 211 139 124 165 205 356 282 276 229 249 233 260 277 245 287 272 290 308 307 287 300 316 308 267 262 210 207 240 248 261 259 255 263 259 262 268 269 264 263 262
17 23 2 230 182 146 183 238 244 192 254 246 272 258 260 267 293 292 265 291 287 276 269 259 262 265 263 256 265 258 217 246 261 279 266 271 265 257 255 247 246 248 260 265
357 6 13 26 202 186 175 213 147 222 261 228 232 253 262 284 283 282 289 291 291 275 216 236 255 263 269 254 242 226 232 226 229 261 281 262 252 248 243 251 261 266 261 263
340 346 345 349 356 240 206 214 220 237 261 247 263 262 274 284 282 276 274 276 261 245 262 295 305 293 282 258 241 227 219 225 233 240 251 265 290 271 256 251 259 255 252 258
325 326 325 321 317 310 189 232 216 246 307 252 259 292 272 283 285 292 252 271 279 263 235 232 247 257 260 276 274 228 222 222 219 217 241 255 251 250 246 258 266 264 255 259
303 303 303 305 301 295 268 250 181 225 263 263 253 245 253 230 262 283 292 282 326 223 224 236 248 251 228 247 243 205 195 196 214 233 242 263 254 256 259 265 260 258 258 262
288 289 288 289 288 288 279 261 214 203 254 268 256 251 250 262 250 256 272 310 245 226 232 229 233 242 228 235 237 248 238 218 215 220 231 257 221 252 216 231 256 266 272 267
284 284 285 284 282 280 278 266 228 226 233 257 288 257 244 233 245 257 255 252 275 285 295 236 254 246 246 244 257 243 249 217 234 210 228 247 249 294 277 270 264 268 273 266
278 279 281 281 280 279 262 268 261 261 263 280 253 258 259 237 240 234 246 254 240 239 227 257 249 254 209 257 267 249 247 240 245 261 256 264 269 270 278 281 288 295 293 279
274 278 278 276 277 279 273 259 245 221 262 261 278 260 260 231 227 222 214 235 247 257 258 240 246 251 212 251 250 251 244 242 247 259 269 273 274 270 268 266 288 289 281 277
274 274 274 276 279 280 282 267 251 228 217 266 280 297 279 262 254 247 227 227 235 239 241 228 245 242 241 250 254 255 231 241 241 253 257 249 276 278 267 271 268 280 276 276
283 277 278 276 274 277 301 305 257 220 209 246 269 257 267 268 237 241 242 227 233 233 225 234 232 239 213 252 259 259 245 242 243 251 262 261 264 271 274 267 267 284 279 267
284 285 278 274 274 256 210 225 186 18 171 257 291 283 258 266 220 295 278 210 214 217 229 230 246 241 214 244 263 277 270 253 266 264 252 275 271 264 264 270 254 294 302 262
283 281 282 281 276 270 255 244 254 262 294 285 259 264 297 179 248 280 219 245 208 223 237 233 235 216 215 252 262 281 272 263 261 261 259 246 262 271 274 271 270 316 299 175
288 282 286 289 236 223 242 237 234 207 196 215 232 218 280 124 236 242 257 208 241 231 232 212 209 214 227 244 267 268 268 262 267 274 261 256 270 286 291 287 276 295 299 196
297 290 211 230 210 233 279 188 214 159 203 238 249 193 243 184 201 270 291 209 229 246 228 172 218 254 256 298 348 343 335 332 333 299 288 300 298 295 292 305 298 293 286 183
254 262 259 308 301 268 211 227 201 201 251 226 237 222 239 231 238 245 225 291 243 249 232 195 219 259 195 9 351 342 341 336 330 331 310 300 291 284 281 235 220 311 166 142
291 308 304 296 285 222 225 220 210 202 230 206 192 216 199 217 165 200 247 253 247 250 197 229 251 293 357 348 339 335 337 338 329 329 314 324 334 350 29 74 126 116 115 112
279 193 247 213 228 219 222 212 210 212 216 186 195 192 154 140 147 210 237 251 243 323 245 249 226 7 3 337 324 330 346 349 358 349 345 23 43 55 56 87 75 104 102 111
226 222 225 211 209 226 209 218 216 231 247 194 175 135 186 160 175 213 242 248 309 273 268 293 6 315 325 352 13 356 346 357 10 22 22 44 55 69 65 66 77 103 106 103
233 226 233 222 228 256 249 235 263 268 229 179 94 22 183 189 210 202 256 262 254 238 249 199 225 233 220 337 4 347 3 21 20 30 45 52 56 67 68 63 72 85 97 103
232 234 257 274 274 259 274 300 300 294 250 133 150 201 209 219 214 183 214 227 239 254 236 228 169 186 207 201 181 123 84 54 44 43 44 48 54 67 71 65 63 67 87 99
236 236 232 258 279 276 283 278 280 271 304 278 223 222 215 197 216 210 198 217 249 247 183 166 197 209 219 191 177 163 154 111 76 59 61 56 53 60 66 70 65 79 86 91